JILIN-01 GAOFEN 3C (46455 NORAD) Tracking and Keplerian Element Data

This shows tracking and keplerian element data for the satellite.

Feedback or suggestion? Click here.




ElementValue
Catalog46455
NameJILIN-01 GAOFEN 3C
Epoch Orbit1174
Epoch Day336.90128921
Epoch Year2020
RAAN31.1138
Inclination97.5228
Eccentricity0.0014603
Argument of Perigee30.8083
Mean Anonmoly142.7724
Mean Motion15.09044134
Decay Rate1.093E-05
L11 46455U 20065B 20336.90128921 .00001093 00000-0 72877-4 0 9991
L22 46455 97.5228 31.1138 0014603 30.8083 142.7724 15.09044134 11743

Live tracking and technical data element details for JILIN-01 GAOFEN 3C (NORAD 46455). JILIN-01 GAOFEN 3C can be tracked NOW for your location showing map with azimuth and elevation plus other details from your city location.

Track the satellite on the map from your city or location and see movement details for azimuth, elevation, latitude, longitude, range, height, and movement on the map or in text.







IsCatalogInMostPopularTable: catalog: 46455, numindb: 26
Update: records affected: 1



GetName: 46455 JILIN-01 GAOFEN 3C

Hit Count: updated at: Thu, 03 Dec 2020 07:43:09 GMT